Simultaneous Nadir Overpasses (SNOs) Predictions

Prediction of SNOs between NOAA-19 and METOP-C Satellite Orbit:

Table of predicted SNOs for the next 14.0 days since TLE Epoch: 4/9/2022
Index Date (NOAA-19) Time (NOAA-19) Lat,Lon (NOAA-19) SZA (NOAA-19 ) Date (METOP-C) Time (METOP-C) Lat,Lon (METOP-C) SZA (METOP-C ) Distance(km) Time Diff (sec)
1 04/14/2022 08:52:05 -80.80,-100.37 107.21 04/14/2022 08:53:20 -80.81,-100.43 107.18 1.58 75
2 04/14/2022 09:43:00 80.80, 66.80 72.78 04/14/2022 09:44:02 80.80, 66.65 72.78 2.70 62
3 04/14/2022 10:34:05 -80.80,-125.86 107.23 04/14/2022 10:34:42 -80.80,-125.92 107.23 1.16 37
4 04/14/2022 11:25:00 80.80, 41.31 72.75 04/14/2022 11:25:24 80.79, 41.16 72.73 3.08 24
5 04/14/2022 12:16:05 -80.80,-151.35 107.26 04/14/2022 12:16:04 -80.79,-151.41 107.27 1.40 1
6 04/14/2022 13:06:59 80.80, 16.18 72.75 04/14/2022 13:06:45 80.80, 16.02 72.74 2.90 14
7 04/14/2022 13:58:04 -80.79,-176.47 107.26 04/14/2022 13:57:25 -80.81,-176.55 107.27 2.00 39
8 04/14/2022 14:48:59 80.80, -9.31 72.73 04/14/2022 14:48:07 80.79, -9.47 72.69 2.87 52



Historial Predications of SNOs between NOAA-19 and METOP-C
